virtualACA

Welcome To Vancouver International Airport CYVR

Hub Roster

Pilot Domicile Rank
Brian Kozushka - ACA1102CanadaChief Pilot
Jean-Michel Lazare - ACA2310FranceChief Pilot
Chris Woolbright - ACA3136United StatesSecond Officer
Celso Silva - ACA3173BrazilSenior Officer
Marcel De Boer - ACA3175NetherlandsSecond Officer
Jardel Lopes - ACA3179BrazilFirst Officer

Current Vatsim Weather


CYVR 162225Z 09007KT 12SM -RA BKN034 OVC040 09/08 A2959 RMK SC5SC3 SLP023
Vancouver International Airport